Вернуться в каталог

EUTE 7B

EUTE 3D

АктивенСвязьGEO
NORAD 39163·PAYLOAD·🇪🇺 EU

Запущен May 14, 2013 с Baikonur Cosmodrome

Loading…

TLE

СвежийSource: Space-Track

Эпоха: Sep 14, 2026, 13:52 UTC

1 39163U 13022A   26257.57830770  .00000096  00000-0  00000-0 0  9994
2 39163   0.0674 344.4985 0004932 119.1991 114.0513  1.00271678 48848

Отслеживайте EUTE 7B в реальном времени с AllMySat

Download on the App Store